Dewpoint
45 47 49 47 50 52 52 53 55 55 56 59 59 60 61 60 61 62 61 61 61 60 61 60 59 59 58 57 52 49 52 49 49 47 48 53 50 46 47 50 52 45 46
42 45 48 47 49 50 51 53 55 57 57 58 60 60 60 60 60 60 60 60 60 60 61 59 58 59 59 57 54 52 49 50 49 45 47 51 51 52 51 54 50 49 48
39 43 47 47 49 49 51 53 50 54 56 57 58 59 59 59 59 59 60 59 59 58 59 59 59 58 56 55 52 48 46 44 47 44 45 46 51 52 54 52 51 49 47
38 39 44 48 48 49 51 50 49 47 51 53 54 56 58 57 54 56 59 59 58 58 58 57 57 56 56 56 51 44 41 42 43 44 44 46 47 50 50 48 47 47 43
38 39 41 48 46 47 49 51 51 48 46 46 48 49 50 50 50 54 54 54 55 55 55 55 55 55 53 52 41 45 50 43 44 43 43 44 45 47 47 48 47 46 45
40 41 40 41 45 46 48 51 50 49 46 46 45 45 46 46 48 51 52 50 50 51 51 51 50 49 48 49 53 52 51 48 45 43 43 44 46 48 47 47 47 46 44
41 42 40 39 42 46 46 47 50 51 51 47 45 45 48 47 41 46 51 53 52 53 53 52 46 47 49 49 47 49 49 49 50 53 49 47 47 50 49 50 48 46 46
41 41 41 37 38 43 45 47 51 54 53 51 50 49 48 45 38 39 47 51 51 51 52 52 49 50 49 48 47 48 47 48 51 48 52 52 53 52 53 51 51 50 49
38 40 40 36 37 41 43 47 50 52 53 52 50 50 48 47 37 36 40 45 46 45 44 44 45 44 40 42 40 42 44 45 31 33 39 40 39 39 46 48 43 43 41
37 39 40 37 37 40 42 47 50 49 48 45 47 48 48 47 38 34 38 30 40 35 36 37 33 33 35 39 42 42 41 42 40 34 40 39 35 40 32 43 37 35 35
37 37 40 40 38 42 46 48 49 47 43 45 44 46 46 46 48 35 33 31 30 27 24 29 20 26 32 30 35 41 40 39 37 36 37 37 36 37 37 37 37 35 29
37 36 40 42 38 42 48 49 48 46 45 46 43 44 43 45 47 39 33 35 39 33 32 33 35 17 16 26 23 29 34 28 34 35 34 34 33 33 34 35 38 40 38
38 37 41 44 41 42 47 47 46 47 40 40 39 37 36 40 43 44 40 34 38 45 42 43 39 33 22 22 21 29 32 35 35 36 38 38 38 39 40 40 39 39 40
40 40 43 45 43 40 44 45 41 42 39 37 35 35 35 35 36 41 41 41 40 41 42 43 42 41 40 40 41 39 38 39 40 42 42 41 41 42 42 40 40 39 38
42 43 44 44 45 42 40 40 39 41 39 36 35 34 35 35 35 36 38 39 40 40 40 42 43 42 40 40 41 41 43 44 45 45 45 47 46 43 41 39 38 39 37
46 43 44 41 45 41 39 37 40 39 40 39 40 38 36 38 39 38 37 38 39 38 38 39 40 41 40 41 44 47 48 47 48 45 42 40 37 36 37 35 34 34 34
47 43 41 41 40 38 38 35 36 40 41 42 41 40 39 41 38 37 36 36 37 36 39 43 41 42 44 47 49 49 47 42 39 37 34 35 36 34 33 32 32 31 31
49 44 41 41 38 39 37 36 34 32 35 37 41 40 39 38 37 36 36 38 37 39 42 42 44 47 48 48 44 38 36 34 34 35 35 35 35 34 34 33 31 31 32
46 43 43 38 38 38 37 38 35 33 32 29 45 43 41 38 38 36 36 42 43 44 43 47 49 48 43 39 38 37 36 36 39 40 40 38 36 35 32 32 32 32 32
45 44 44 40 39 39 39 38 38 36 35 36 45 46 43 43 45 46 48 50 50 50 50 46 41 37 35 34 36 42 42 42 41 37 34 33 33 34 34 34 34 34 34
44 45 45 43 40 40 40 39 39 38 38 38 39 48 47 48 49 51 50 50 46 43 36 32 34 40 43 42 42 41 37 33 32 33 32 34 35 35 36 36 36 35 35
43 44 44 43 42 42 42 42 41 41 40 43 50 49 48 48 47 42 39 36 37 40 43 42 41 41 39 37 34 31 30 31 33 33 33 33 34 35 35 35 33 33 33
44 44 44 46 46 46 46 45 42 42 47 48 48 45 43 41 41 42 43 44 43 43 40 36 34 33 34 34 34 33 32 33 33 34 32 32 32 32 32 32 30 31 32
42 44 44 45 43 44 46 45 47 48 47 44 44 44 45 45 45 45 43 39 36 35 36 36 35 34 35 34 33 33 33 34 33 32 32 30 28 29 30 30 29 30 32
42 44 45 45 47 46 48 49 48 46 45 46 46 46 45 42 37 34 35 38 39 38 34 32 32 33 33 33 33 34 32 32 32 31 29 29 29 28 27 27 28 29 29
48 49 50 50 50 50 49 48 47 47 47 46 43 38 35 35 37 38 38 35 33 32 30 31 31 32 33 34 34 32 32 33 35 33 34 28 25 24 25 25 24 25 26
Wind_Speed
6 5 6 6 7 8 8 9 10 8 8 8 9 7 7 7 8 12 16 13 15 15 15 17 15 15 14 11 8 5 9 12 13 14 12 11 11 12 12 11 12 15 14
8 6 7 7 7 9 9 10 11 13 12 12 9 8 6 4 2 5 11 12 15 15 15 18 18 18 17 16 14 11 8 6 13 17 16 16 13 10 11 9 10 10 8
10 9 7 7 8 9 9 8 13 12 13 15 15 13 8 7 6 10 10 14 13 14 15 16 17 15 15 13 11 10 9 7 12 15 17 14 11 10 9 6 6 4 6
11 10 10 9 10 9 9 10 10 12 15 14 16 16 14 9 10 14 15 15 15 14 13 14 13 14 15 14 10 9 11 12 13 13 13 11 11 9 9 9 7 8 8
12 12 12 11 11 10 9 9 10 10 12 15 16 15 15 13 11 13 14 14 16 16 14 13 9 10 12 8 9 8 12 11 12 11 11 9 8 7 12 9 12 10 11
14 13 13 13 12 11 10 10 10 11 11 12 12 13 15 14 12 11 13 13 14 14 14 12 12 13 12 9 8 6 7 9 9 8 7 6 6 9 10 14 12 13 15
15 14 13 13 14 13 12 11 10 10 10 12 13 12 11 11 10 12 8 12 13 13 12 11 11 10 10 10 11 10 7 6 6 3 5 6 7 12 13 13 15 16 17
16 15 14 15 16 15 14 12 10 9 10 10 9 9 10 7 6 8 7 8 8 8 7 7 6 7 5 6 6 5 5 4 5 6 9 8 8 5 12 13 13 15 16
19 17 16 16 17 17 16 14 12 11 10 10 9 8 7 8 7 6 5 8 7 6 5 4 4 4 4 3 8 9 8 7 3 4 5 5 5 6 6 10 14 14 18
21 19 18 17 17 18 17 15 13 11 11 11 9 8 5 8 10 9 6 8 9 8 6 5 2 4 11 9 8 9 8 6 5 5 5 5 6 8 10 14 15 17 18
22 20 19 18 18 18 17 15 14 13 12 11 10 9 9 9 11 13 11 7 11 11 10 10 10 11 12 9 2 4 2 2 3 7 9 9 9 10 11 11 14 17 19
23 22 21 19 17 18 18 16 15 14 13 12 11 11 11 10 8 16 16 11 1 9 7 7 6 13 10 8 6 3 3 5 8 10 11 12 12 11 10 10 11 14 17
25 24 23 21 19 18 19 17 17 16 16 15 15 14 13 13 11 13 18 16 7 4 2 7 8 8 11 9 14 10 7 10 11 11 12 12 10 7 9 10 12 15 18
26 25 24 24 21 19 18 18 17 17 17 17 16 15 14 14 14 14 13 11 10 9 9 8 5 5 9 6 6 9 12 11 10 11 10 10 9 10 10 10 13 13 14
28 27 25 24 24 22 20 20 20 18 19 18 17 17 17 16 17 14 13 14 13 15 11 9 8 8 9 10 10 8 5 5 7 6 8 8 9 9 11 10 12 12 16
28 28 27 25 25 23 22 19 16 9 21 16 4 12 12 11 15 16 14 10 9 12 11 10 9 6 6 5 4 3 1 3 3 6 7 9 11 11 13 15 11 11 15
29 27 27 26 25 25 24 23 21 19 5 15 14 5 2 13 15 12 11 9 9 13 10 6 6 6 5 3 2 1 3 7 5 6 7 5 5 10 11 13 15 16 17
29 27 28 28 26 26 25 24 22 22 24 21 5 12 13 14 18 17 18 18 9 8 8 7 6 5 6 7 9 9 10 10 9 9 7 4 7 10 13 14 16 16 17
29 29 28 26 28 26 25 24 24 23 21 23 16 8 10 16 16 18 22 13 9 8 7 6 5 9 10 12 14 12 10 7 7 7 8 9 8 8 12 14 15 15 15
28 28 25 26 23 24 24 24 23 22 21 20 20 15 16 17 14 14 11 8 9 10 11 12 13 14 12 13 11 9 7 8 3 1 4 8 9 9 10 12 13 15 16
23 25 22 24 26 23 23 23 21 21 21 20 18 18 19 12 13 15 14 14 15 16 16 17 15 14 12 9 9 6 4 5 7 5 5 6 6 8 9 11 13 14 17
20 22 24 26 24 22 22 21 22 21 20 15 14 15 16 16 17 19 19 19 17 16 12 14 13 10 8 11 9 5 6 7 6 4 4 5 8 10 10 11 12 12 15
19 20 20 22 21 20 18 22 21 20 16 17 19 22 18 20 21 21 21 19 17 16 14 14 11 11 12 9 10 6 5 4 3 4 5 7 7 9 11 12 14 15 15
19 18 18 19 23 22 22 21 16 16 19 20 22 22 22 23 23 23 22 22 20 17 15 11 12 9 10 10 8 6 5 3 4 4 5 7 9 9 10 11 14 14 13
15 15 17 18 17 20 19 21 20 21 22 22 21 22 23 23 24 25 23 19 17 21 19 14 12 12 12 11 10 10 7 10 8 8 6 7 8 11 10 12 15 16 17
15 17 14 18 19 20 22 23 24 25 25 26 25 25 24 22 19 16 17 19 18 14 20 16 15 15 14 12 11 10 8 7 8 9 9 8 10 12 13 16 18 17 18
Wind_Direction
129 110 92 89 70 73 68 64 78 86 104 92 74 82 74 85 85 104 111 118 116 132 142 139 135 140 126 130 162 180 172 167 140 153 143 143 169 179 162 195 164 196 176
139 129 106 104 93 79 77 78 86 103 113 115 111 107 111 102 84 113 130 137 131 147 149 141 141 156 167 183 181 210 185 182 150 154 152 162 171 166 176 193 199 208 182
148 143 131 118 115 92 89 81 85 102 111 125 126 121 122 126 155 125 132 129 128 128 139 142 158 157 168 164 179 176 162 154 149 164 169 167 154 169 176 176 201 195 207
150 146 143 138 135 115 106 103 95 91 101 106 116 129 138 144 118 119 123 120 119 122 136 138 152 159 158 154 153 158 155 151 157 168 169 166 177 172 208 198 206 214 208
157 149 151 149 144 142 127 119 109 106 105 108 109 109 114 118 108 110 105 109 112 115 114 113 107 94 99 112 144 152 148 163 165 165 172 183 183 187 210 219 232 220 220
165 156 156 161 155 155 149 136 131 125 120 119 114 107 97 91 78 88 117 115 114 111 106 106 109 103 93 84 77 86 159 169 180 183 175 206 211 219 224 229 229 228 242
174 164 162 165 166 162 164 160 149 143 135 127 124 118 107 102 95 92 93 118 121 123 125 130 132 118 137 128 117 124 113 88 51 232 274 243 244 222 234 224 232 237 242
180 172 170 172 173 170 170 167 162 159 156 152 143 131 133 117 100 93 97 115 118 117 122 127 128 135 117 141 132 125 141 164 199 219 228 238 231 243 228 236 249 251 259
182 179 176 175 175 178 178 173 174 170 167 170 168 163 158 149 154 151 189 162 143 133 123 119 130 136 125 153 167 171 178 188 179 231 255 279 276 267 258 244 241 246 255
184 183 179 177 176 181 183 181 179 183 182 185 182 183 165 168 181 179 190 163 152 152 152 147 177 177 171 191 187 179 189 194 214 212 233 240 228 238 236 236 253 255 259
183 181 179 178 178 179 178 178 178 187 184 196 190 188 191 194 180 191 205 187 163 169 166 174 181 183 185 193 237 197 228 303 235 262 260 256 251 251 249 237 249 258 269
184 181 179 177 180 176 178 180 183 184 187 188 191 197 195 195 198 195 199 224 103 173 170 168 161 184 191 201 217 265 252 265 261 262 263 268 270 270 269 264 264 266 272
186 183 180 179 185 176 180 180 181 183 189 191 190 194 191 188 196 188 201 213 212 210 50 69 114 174 197 220 234 239 232 240 256 265 270 277 287 316 317 288 281 272 271
188 187 182 181 184 181 185 184 191 188 194 192 190 192 192 190 195 183 194 197 213 231 244 233 211 204 209 252 224 220 238 252 266 282 289 301 300 279 286 292 292 300 312
187 188 188 187 185 184 193 190 195 194 197 195 195 193 190 196 198 191 177 185 190 208 203 214 199 211 223 223 222 227 242 255 264 284 295 302 302 306 307 328 321 297 283
186 190 191 191 187 190 191 193 206 209 197 221 213 208 179 119 122 145 164 187 191 162 197 224 219 219 225 225 222 194 222 148 335 346 337 347 342 339 327 309 300 305 302
192 192 194 199 190 196 194 197 195 210 191 223 227 226 66 141 143 155 174 164 167 162 220 206 195 187 167 148 109 138 107 61 12 15 21 8 300 293 321 324 320 316 316
198 194 199 197 200 199 200 200 202 196 201 212 217 215 190 157 160 161 156 136 151 225 210 205 181 171 136 100 75 60 38 54 37 12 354 346 352 337 322 319 318 326 326
203 203 203 203 206 204 203 203 205 206 204 203 148 108 132 170 168 169 172 217 211 181 175 134 131 114 105 100 101 104 100 95 46 15 350 324 339 323 315 333 331 331 321
208 211 200 211 207 207 213 208 210 209 206 209 181 158 142 140 145 154 165 148 129 125 121 125 113 110 103 108 109 90 116 106 139 269 354 346 343 342 339 334 327 331 333
207 203 209 208 208 209 209 213 211 211 209 206 210 147 171 170 150 135 128 131 123 131 125 120 120 115 121 124 110 95 123 102 68 45 0 359 341 358 345 344 340 341 335
203 205 194 209 216 208 206 210 212 208 211 186 126 135 148 142 137 133 123 113 103 103 102 117 114 116 115 110 100 118 77 72 50 15 346 7 10 3 349 341 332 336 334
198 198 193 192 210 200 194 212 214 210 161 153 149 149 149 137 129 126 122 117 112 107 109 109 105 106 105 100 87 85 87 74 63 18 13 12 352 2 331 342 336 336 338
194 188 192 190 194 194 192 196 179 156 156 159 158 145 138 135 131 126 122 121 114 113 104 95 109 113 109 105 107 102 91 52 51 35 352 358 355 351 337 336 327 333 314
181 182 187 183 163 175 158 163 159 157 155 147 140 136 133 131 130 128 128 122 125 122 124 126 122 125 119 115 105 99 81 53 42 342 341 353 339 325 332 336 330 327 327
155 153 163 160 159 153 152 150 153 147 142 142 140 132 127 120 117 120 127 124 118 126 122 131 132 120 118 108 97 83 68 44 22 355 327 327 334 335 349 335 332 333 336